Torna al catalogo

STARLINK-35824

AttivoComunicazioniVLEO
NORAD 66370·PAYLOAD·🇺🇸 United States

Lanciato Nov 6, 2025 da Vandenberg Space Force Base

Loading…

Prossimi Passaggi (prossime 24 ore)

TLE

AggiornatoSource: CelesTrak SupGP

Epoca: Sep 14, 2026, 15:19 UTC

1 66370C 25254Y   26257.63868056 -.00043176  00000+0 -12755-2 0  2575
2 66370  53.1588  70.8595 0001258  87.6491 125.8204 15.34415470    16

Traccia STARLINK-35824 in tempo reale con AllMySat

Download on the App Store